"Time","Value","Approval","myLocation"
"2023-04-24 00:00",4.83995463812436,"Approved","OW449"
"2023-04-24 01:00",4.83695718654434,"Approved","OW449"
"2023-04-24 02:00",4.83595973496432,"Approved","OW449"
"2023-04-24 03:00",4.8329622833843,"Approved","OW449"
"2023-04-24 04:00",4.83196483180428,"Approved","OW449"
"2023-04-24 05:00",4.82996738022426,"Approved","OW449"
"2023-04-24 06:00",4.82796992864424,"Approved","OW449"
"2023-04-24 07:00",4.82697247706422,"Approved","OW449"
"2023-04-24 08:00",4.8249750254842,"Approved","OW449"
"2023-04-24 09:00",4.82397757390418,"Approved","OW449"
"2023-04-24 10:00",4.82198012232416,"Approved","OW449"
"2023-04-24 11:00",4.81998267074414,"Approved","OW449"
"2023-04-24 12:00",4.81898521916412,"Approved","OW449"
"2023-04-24 13:00",4.8179877675841,"Approved","OW449"
"2023-04-24 14:00",4.81599031600408,"Approved","OW449"
"2023-04-24 15:00",4.81499286442406,"Approved","OW449"
"2023-04-24 16:00",4.81299541284404,"Approved","OW449"
"2023-04-24 17:00",4.81199796126402,"Approved","OW449"
"2023-04-24 18:00",4.811000509684,"Approved","OW449"
"2023-04-24 19:00",4.80800305810398,"Approved","OW449"
"2023-04-24 20:00",4.80700560652395,"Approved","OW449"
"2023-04-24 21:00",4.80500815494393,"Approved","OW449"
"2023-04-24 22:00",4.80401070336391,"Approved","OW449"
"2023-04-24 23:00",4.80201325178389,"Approved","OW449"
"2023-04-25 00:00",4.80001580020387,"Approved","OW449"
"2023-04-25 01:00",4.79901834862385,"Approved","OW449"
"2023-04-25 02:00",4.79702089704383,"Approved","OW449"
"2023-04-25 03:00",4.79502344546381,"Approved","OW449"
"2023-04-25 04:00",4.79402599388379,"Approved","OW449"
"2023-04-25 05:00",4.79302854230377,"Approved","OW449"
"2023-04-25 06:00",4.79103109072375,"Approved","OW449"
"2023-04-25 07:00",4.79003363914373,"Approved","OW449"
"2023-04-25 08:00",4.78803618756371,"Approved","OW449"
"2023-04-25 09:00",4.78703873598369,"Approved","OW449"
"2023-04-25 10:00",4.78504128440367,"Approved","OW449"
"2023-04-25 11:00",4.78404383282365,"Approved","OW449"
"2023-04-25 12:00",4.78204638124363,"Approved","OW449"
"2023-04-25 13:00",4.78204892966361,"Approved","OW449"
"2023-04-25 14:00",4.78005147808359,"Approved","OW449"
"2023-04-25 15:00",4.77905402650357,"Approved","OW449"
"2023-04-25 16:00",4.77805657492355,"Approved","OW449"
"2023-04-25 17:00",4.77705912334353,"Approved","OW449"
"2023-04-25 18:00",4.77506167176351,"Approved","OW449"
"2023-04-25 19:00",4.77306422018349,"Approved","OW449"
"2023-04-25 20:00",4.77106676860347,"Approved","OW449"
"2023-04-25 21:00",4.77006931702345,"Approved","OW449"
"2023-04-25 22:00",4.76907186544342,"Approved","OW449"
"2023-04-25 23:00",4.76807441386341,"Approved","OW449"
"2023-04-26 00:00",4.76407696228338,"Approved","OW449"
"2023-04-26 01:00",4.76507951070336,"Approved","OW449"
"2023-04-26 02:00",4.76408205912334,"Approved","OW449"
"2023-04-26 03:00",4.76308460754332,"Approved","OW449"
"2023-04-26 04:00",4.7610871559633,"Approved","OW449"
"2023-04-26 05:00",4.76008970438328,"Approved","OW449"
"2023-04-26 06:00",4.75809225280326,"Approved","OW449"
"2023-04-26 07:00",4.75709480122324,"Approved","OW449"
"2023-04-26 08:00",4.75609734964322,"Approved","OW449"
"2023-04-26 09:00",4.7530998980632,"Approved","OW449"
"2023-04-26 10:00",4.75210244648318,"Approved","OW449"
"2023-04-26 11:00",4.75010499490316,"Approved","OW449"
"2023-04-26 12:00",4.74810754332314,"Approved","OW449"
"2023-04-26 13:00",4.74611009174312,"Approved","OW449"
"2023-04-26 14:00",4.7451126401631,"Approved","OW449"
"2023-04-26 15:00",4.74311518858308,"Approved","OW449"
"2023-04-26 16:00",4.74111773700306,"Approved","OW449"
"2023-04-26 17:00",4.74012028542304,"Approved","OW449"
"2023-04-26 18:00",4.73812283384302,"Approved","OW449"
"2023-04-26 19:00",4.735125382263,"Approved","OW449"
"2023-04-26 20:00",4.73412793068298,"Approved","OW449"
"2023-04-26 21:00",4.73213047910296,"Approved","OW449"
"2023-04-26 22:00",4.73013302752294,"Approved","OW449"
"2023-04-26 23:00",4.72713557594292,"Approved","OW449"
"2023-04-27 00:00",4.72613812436289,"Approved","OW449"
"2023-04-27 01:00",4.72414067278287,"Approved","OW449"
"2023-04-27 02:00",4.72214322120285,"Approved","OW449"
"2023-04-27 03:00",4.71914576962283,"Approved","OW449"
"2023-04-27 04:00",4.71914831804281,"Approved","OW449"
"2023-04-27 05:00",4.71615086646279,"Approved","OW449"
"2023-04-27 06:00",4.71415341488277,"Approved","OW449"
"2023-04-27 07:00",4.71215596330275,"Approved","OW449"
"2023-04-27 08:00",4.71015851172273,"Approved","OW449"
"2023-04-27 09:00",4.70816106014271,"Approved","OW449"
"2023-04-27 10:00",4.70516360856269,"Approved","OW449"
"2023-04-27 11:00",4.70316615698267,"Approved","OW449"
"2023-04-27 12:00",4.70116870540265,"Approved","OW449"
"2023-04-27 13:00",4.69917125382263,"Approved","OW449"
"2023-04-27 14:00",4.69717380224261,"Approved","OW449"
"2023-04-27 15:00",4.69517635066259,"Approved","OW449"
"2023-04-27 16:00",4.69317889908257,"Approved","OW449"
"2023-04-27 17:00",4.69018144750255,"Approved","OW449"
"2023-04-27 18:00",4.68818399592253,"Approved","OW449"
"2023-04-27 19:00",4.68518654434251,"Approved","OW449"
"2023-04-27 20:00",4.68318909276249,"Approved","OW449"
"2023-04-27 21:00",4.68019164118247,"Approved","OW449"
"2023-04-27 22:00",4.67819418960245,"Approved","OW449"
"2023-04-27 23:00",4.67419673802243,"Approved","OW449"
"2023-04-28 00:00",4.67419928644241,"Approved","OW449"
"2023-04-28 01:00",4.67220183486239,"Approved","OW449"
"2023-04-28 02:00",4.67020438328236,"Approved","OW449"
"2023-04-28 03:00",4.66820693170234,"Approved","OW449"
"2023-04-28 04:00",4.66420948012232,"Approved","OW449"
"2023-04-28 05:00",4.6622120285423,"Approved","OW449"
"2023-04-28 06:00",4.66021457696228,"Approved","OW449"
"2023-04-28 07:00",4.65721712538226,"Approved","OW449"
"2023-04-28 08:00",4.65421967380224,"Approved","OW449"
"2023-04-28 09:00",4.65122222222222,"Approved","OW449"
"2023-04-28 10:00",4.6492247706422,"Approved","OW449"
"2023-04-28 11:00",4.64722731906218,"Approved","OW449"
"2023-04-28 12:00",4.64522986748216,"Approved","OW449"
"2023-04-28 13:00",4.64123241590214,"Approved","OW449"
"2023-04-28 14:00",4.63923496432212,"Approved","OW449"
"2023-04-28 15:00",4.6372375127421,"Approved","OW449"
"2023-04-28 16:00",4.63424006116208,"Approved","OW449"
"2023-04-28 17:00",4.63224260958206,"Approved","OW449"
"2023-04-28 18:00",4.62924515800204,"Approved","OW449"
"2023-04-28 19:00",4.62624770642202,"Approved","OW449"
"2023-04-28 20:00",4.623250254842,"Approved","OW449"
"2023-04-28 21:00",4.62025280326198,"Approved","OW449"
"2023-04-28 22:00",4.61825535168196,"Approved","OW449"
"2023-04-28 23:00",4.61625790010194,"Approved","OW449"
"2023-04-29 00:00",4.61326044852192,"Approved","OW449"
"2023-04-29 01:00",4.6112629969419,"Approved","OW449"
"2023-04-29 02:00",4.60826554536188,"Approved","OW449"
"2023-04-29 03:00",4.60626809378186,"Approved","OW449"
"2023-04-29 04:00",4.60327064220184,"Approved","OW449"
"2023-04-29 05:00",4.60027319062181,"Approved","OW449"
"2023-04-29 06:00",4.59827573904179,"Approved","OW449"
"2023-04-29 07:00",4.59427828746177,"Approved","OW449"
"2023-04-29 08:00",4.59228083588175,"Approved","OW449"
"2023-04-29 09:00",4.58928338430173,"Approved","OW449"
"2023-04-29 10:00",4.58628593272171,"Approved","OW449"
"2023-04-29 11:00",4.58428848114169,"Approved","OW449"
"2023-04-29 12:00",4.58129102956167,"Approved","OW449"
"2023-04-29 13:00",4.57929357798165,"Approved","OW449"
"2023-04-29 14:00",4.57629612640163,"Approved","OW449"
"2023-04-29 15:00",4.57329867482161,"Approved","OW449"
"2023-04-29 16:00",4.57130122324159,"Approved","OW449"
"2023-04-29 17:00",4.56830377166157,"Approved","OW449"
"2023-04-29 18:00",4.56530632008155,"Approved","OW449"
"2023-04-29 19:00",4.56230886850153,"Approved","OW449"
"2023-04-29 20:00",4.55831141692151,"Approved","OW449"
"2023-04-29 21:00",4.55531396534149,"Approved","OW449"
"2023-04-29 22:00",4.55231651376147,"Approved","OW449"
"2023-04-29 23:00",4.54931906218145,"Approved","OW449"
"2023-04-30 00:00",4.54632161060143,"Approved","OW449"
"2023-04-30 01:00",4.54332415902141,"Approved","OW449"
"2023-04-30 02:00",4.54032670744139,"Approved","OW449"
"2023-04-30 03:00",4.53832925586137,"Approved","OW449"
"2023-04-30 04:00",4.53533180428135,"Approved","OW449"
"2023-04-30 05:00",4.53233435270132,"Approved","OW449"
"2023-04-30 06:00",4.5293369011213,"Approved","OW449"
"2023-04-30 07:00",4.52733944954128,"Approved","OW449"
"2023-04-30 08:00",4.52334199796126,"Approved","OW449"
"2023-04-30 09:00",4.51934454638124,"Approved","OW449"
"2023-04-30 10:00",4.51634709480122,"Approved","OW449"
"2023-04-30 11:00",4.5143496432212,"Approved","OW449"
"2023-04-30 12:00",4.51035219164118,"Approved","OW449"
"2023-04-30 13:00",4.50835474006116,"Approved","OW449"
"2023-04-30 14:00",4.50635728848114,"Approved","OW449"
"2023-04-30 15:00",4.50235983690112,"Approved","OW449"
"2023-04-30 16:00",4.4993623853211,"Approved","OW449"
"2023-04-30 17:00",4.49736493374108,"Approved","OW449"
"2023-04-30 18:00",4.49436748216106,"Approved","OW449"
"2023-04-30 19:00",4.49137003058104,"Approved","OW449"
"2023-04-30 20:00",4.48837257900102,"Approved","OW449"
"2023-04-30 21:00",4.486375127421,"Approved","OW449"
"2023-04-30 22:00",4.48437767584098,"Approved","OW449"
"2023-04-30 23:00",4.48038022426096,"Approved","OW449"
"2023-05-01 00:00",4.47938277268094,"Approved","OW449"
"2023-05-01 01:00",4.47738532110092,"Approved","OW449"
"2023-05-01 02:00",4.4743878695209,"Approved","OW449"
"2023-05-01 03:00",4.47239041794088,"Approved","OW449"
"2023-05-01 04:00",4.47039296636086,"Approved","OW449"
"2023-05-01 05:00",4.46639551478084,"Approved","OW449"
"2023-05-01 06:00",4.46339806320082,"Approved","OW449"
"2023-05-01 07:00",4.4614006116208,"Approved","OW449"
"2023-05-01 08:00",4.45740316004078,"Approved","OW449"
"2023-05-01 09:00",4.45440570846075,"Approved","OW449"
"2023-05-01 10:00",4.45040825688073,"Approved","OW449"
"2023-05-01 11:00",4.44841080530071,"Approved","OW449"
"2023-05-01 12:00",4.44441335372069,"Approved","OW449"
"2023-05-01 13:00",4.44141590214067,"Approved","OW449"
"2023-05-01 14:00",4.43941845056065,"Approved","OW449"
"2023-05-01 15:00",4.43742099898063,"Approved","OW449"
"2023-05-01 16:00",4.43442354740061,"Approved","OW449"
"2023-05-01 17:00",4.43142609582059,"Approved","OW449"
"2023-05-01 18:00",4.42842864424057,"Approved","OW449"
"2023-05-01 19:00",4.42543119266055,"Approved","OW449"
"2023-05-01 20:00",4.42243374108053,"Approved","OW449"
"2023-05-01 21:00",4.41943628950051,"Approved","OW449"
"2023-05-01 22:00",4.41743883792049,"Approved","OW449"
"2023-05-01 23:00",4.41344138634047,"Approved","OW449"
"2023-05-02 00:00",4.41144393476045,"Approved","OW449"
"2023-05-02 01:00",4.40844648318043,"Approved","OW449"
"2023-05-02 02:00",4.40544903160041,"Approved","OW449"
"2023-05-02 03:00",4.40245158002039,"Approved","OW449"
"2023-05-02 04:00",4.39945412844037,"Approved","OW449"
"2023-05-02 05:00",4.39545667686035,"Approved","OW449"
"2023-05-02 06:00",4.39245922528033,"Approved","OW449"
"2023-05-02 07:00",4.38946177370031,"Approved","OW449"
"2023-05-02 08:00",4.38746432212029,"Approved","OW449"
"2023-05-02 09:00",4.38346687054027,"Approved","OW449"
"2023-05-02 10:00",4.38046941896024,"Approved","OW449"
"2023-05-02 11:00",4.37947196738022,"Approved","OW449"
"2023-05-02 12:00",4.3754745158002,"Approved","OW449"
"2023-05-02 13:00",4.37047706422018,"Approved","OW449"
"2023-05-02 14:00",4.36847961264016,"Approved","OW449"
"2023-05-02 15:00",4.36648216106014,"Approved","OW449"
"2023-05-02 16:00",4.36348470948012,"Approved","OW449"
"2023-05-02 17:00",4.3604872579001,"Approved","OW449"
"2023-05-02 18:00",4.35848980632008,"Approved","OW449"
"2023-05-02 19:00",4.35549235474006,"Approved","OW449"
"2023-05-02 20:00",4.35249490316004,"Approved","OW449"
"2023-05-02 21:00",4.34949745158002,"Approved","OW449"
"2023-05-02 22:00",4.3465,"Approved","OW449"
"2023-05-02 23:00",4.34350254841998,"Approved","OW449"
"2023-05-03 00:00",4.34150509683996,"Approved","OW449"
"2023-05-03 01:00",4.34050764525994,"Approved","OW449"
"2023-05-03 02:00",4.33851019367992,"Approved","OW449"
"2023-05-03 03:00",4.3345127420999,"Approved","OW449"
"2023-05-03 04:00",4.33251529051988,"Approved","OW449"
"2023-05-03 05:00",4.32951783893986,"Approved","OW449"
"2023-05-03 06:00",4.32652038735984,"Approved","OW449"
"2023-05-03 07:00",4.32352293577982,"Approved","OW449"
"2023-05-03 08:00",4.3205254841998,"Approved","OW449"
"2023-05-03 09:00",4.31652803261978,"Approved","OW449"
"2023-05-03 10:00",4.31253058103976,"Approved","OW449"
"2023-05-03 11:00",4.30953312945973,"Approved","OW449"
"2023-05-03 12:00",4.30653567787971,"Approved","OW449"
"2023-05-03 13:00",4.30153822629969,"Approved","OW449"
"2023-05-03 14:00",4.29854077471967,"Approved","OW449"
"2023-05-03 15:00",4.29454332313965,"Approved","OW449"
"2023-05-03 16:00",4.29154587155963,"Approved","OW449"
"2023-05-03 17:00",4.28654841997961,"Approved","OW449"
"2023-05-03 18:00",4.28355096839959,"Approved","OW449"
"2023-05-03 19:00",4.27955351681957,"Approved","OW449"
"2023-05-03 20:00",4.27555606523955,"Approved","OW449"
"2023-05-03 21:00",4.27155861365953,"Approved","OW449"
"2023-05-03 22:00",4.26756116207951,"Approved","OW449"
"2023-05-03 23:00",4.26356371049949,"Approved","OW449"
"2023-05-04 00:00",4.26056625891947,"Approved","OW449"
"2023-05-04 01:00",4.25656880733945,"Approved","OW449"
"2023-05-04 02:00",4.25257135575943,"Approved","OW449"
"2023-05-04 03:00",4.25057390417941,"Approved","OW449"
"2023-05-04 04:00",4.24857645259939,"Approved","OW449"
"2023-05-04 05:00",4.24557900101937,"Approved","OW449"
"2023-05-04 06:00",4.24258154943935,"Approved","OW449"
"2023-05-04 07:00",4.24058409785933,"Approved","OW449"
"2023-05-04 08:00",4.23558664627931,"Approved","OW449"
"2023-05-04 09:00",4.23158919469929,"Approved","OW449"
"2023-05-04 10:00",4.22759174311927,"Approved","OW449"
"2023-05-04 11:00",4.22359429153925,"Approved","OW449"
"2023-05-04 12:00",4.21959683995922,"Approved","OW449"
"2023-05-04 13:00",4.2135993883792,"Approved","OW449"
"2023-05-04 14:00",4.20960193679919,"Approved","OW449"
"2023-05-04 15:00",4.20460448521916,"Approved","OW449"
"2023-05-04 16:00",4.19960703363914,"Approved","OW449"
"2023-05-04 17:00",4.19560958205912,"Approved","OW449"
"2023-05-04 18:00",4.1916121304791,"Approved","OW449"
"2023-05-04 19:00",4.18861467889908,"Approved","OW449"
"2023-05-04 20:00",4.18361722731906,"Approved","OW449"
"2023-05-04 21:00",4.17861977573904,"Approved","OW449"
"2023-05-04 22:00",4.17362232415902,"Approved","OW449"
"2023-05-04 23:00",4.169624872579,"Approved","OW449"
"2023-05-05 00:00",4.16662742099898,"Approved","OW449"
"2023-05-05 01:00",4.16262996941896,"Approved","OW449"
"2023-05-05 02:00",4.15963251783894,"Approved","OW449"
"2023-05-05 03:00",4.15563506625892,"Approved","OW449"
"2023-05-05 04:00",4.1516376146789,"Approved","OW449"
"2023-05-05 05:00",4.14764016309888,"Approved","OW449"
"2023-05-05 06:00",4.14364271151886,"Approved","OW449"
"2023-05-05 07:00",4.13564525993884,"Approved","OW449"
"2023-05-05 08:00",4.13264780835882,"Approved","OW449"
"2023-05-05 09:00",4.1266503567788,"Approved","OW449"
"2023-05-05 10:00",4.12165290519878,"Approved","OW449"
"2023-05-05 11:00",4.11765545361876,"Approved","OW449"
"2023-05-05 12:00",4.11165800203874,"Approved","OW449"
"2023-05-05 13:00",4.10666055045872,"Approved","OW449"
"2023-05-05 14:00",4.1026630988787,"Approved","OW449"
"2023-05-05 15:00",4.09866564729868,"Approved","OW449"
"2023-05-05 16:00",4.09366819571865,"Approved","OW449"
"2023-05-05 17:00",4.08967074413863,"Approved","OW449"
"2023-05-05 18:00",4.08467329255861,"Approved","OW449"
"2023-05-05 19:00",4.08067584097859,"Approved","OW449"
"2023-05-05 20:00",4.07667838939857,"Approved","OW449"
"2023-05-05 21:00",4.07168093781855,"Approved","OW449"
"2023-05-05 22:00",4.06768348623853,"Approved","OW449"
"2023-05-05 23:00",4.06268603465851,"Approved","OW449"
"2023-05-06 00:00",4.05768858307849,"Approved","OW449"
"2023-05-06 01:00",4.05269113149847,"Approved","OW449"
"2023-05-06 02:00",4.04869367991845,"Approved","OW449"
"2023-05-06 03:00",4.04369622833843,"Approved","OW449"
"2023-05-06 04:00",4.03969877675841,"Approved","OW449"
"2023-05-06 05:00",4.03470132517839,"Approved","OW449"
"2023-05-06 06:00",4.03070387359837,"Approved","OW449"
"2023-05-06 07:00",4.02570642201835,"Approved","OW449"
"2023-05-06 08:00",4.02070897043833,"Approved","OW449"
"2023-05-06 09:00",4.01571151885831,"Approved","OW449"
"2023-05-06 10:00",4.01171406727829,"Approved","OW449"
"2023-05-06 11:00",4.00671661569827,"Approved","OW449"
"2023-05-06 12:00",4.00171916411825,"Approved","OW449"
"2023-05-06 13:00",3.99772171253823,"Approved","OW449"
"2023-05-06 14:00",3.99372426095821,"Approved","OW449"
"2023-05-06 15:00",3.98972680937819,"Approved","OW449"
"2023-05-06 16:00",3.98472935779817,"Approved","OW449"
"2023-05-06 17:00",3.98073190621814,"Approved","OW449"
"2023-05-06 18:00",3.97573445463812,"Approved","OW449"
"2023-05-06 19:00",3.9717370030581,"Approved","OW449"
"2023-05-06 20:00",3.96673955147808,"Approved","OW449"
"2023-05-06 21:00",3.96174209989806,"Approved","OW449"
"2023-05-06 22:00",3.95774464831804,"Approved","OW449"
"2023-05-06 23:00",3.95274719673802,"Approved","OW449"
"2023-05-07 00:00",3.946749745158,"Approved","OW449"
"2023-05-07 01:00",3.94275229357798,"Approved","OW449"
"2023-05-07 02:00",3.93875484199796,"Approved","OW449"
"2023-05-07 03:00",3.93575739041794,"Approved","OW449"
"2023-05-07 04:00",3.93175993883792,"Approved","OW449"
"2023-05-07 05:00",3.9267624872579,"Approved","OW449"
"2023-05-07 06:00",3.92176503567788,"Approved","OW449"
"2023-05-07 07:00",3.91776758409786,"Approved","OW449"
"2023-05-07 08:00",3.91377013251784,"Approved","OW449"
"2023-05-07 09:00",3.90877268093782,"Approved","OW449"
"2023-05-07 10:00",3.9047752293578,"Approved","OW449"
"2023-05-07 11:00",3.89877777777778,"Approved","OW449"
"2023-05-07 12:00",3.89378032619776,"Approved","OW449"
"2023-05-07 13:00",3.88878287461774,"Approved","OW449"
"2023-05-07 14:00",3.88478542303772,"Approved","OW449"
"2023-05-07 15:00",3.8807879714577,"Approved","OW449"
"2023-05-07 16:00",3.87679051987768,"Approved","OW449"
"2023-05-07 17:00",3.87279306829766,"Approved","OW449"
"2023-05-07 18:00",3.86679561671764,"Approved","OW449"
"2023-05-07 19:00",3.86279816513761,"Approved","OW449"
"2023-05-07 20:00",3.85780071355759,"Approved","OW449"
"2023-05-07 21:00",3.85380326197757,"Approved","OW449"
"2023-05-07 22:00",3.84780581039755,"Approved","OW449"
"2023-05-07 23:00",3.84280835881753,"Approved","OW449"
"2023-05-08 00:00",3.83781090723751,"Approved","OW449"
"2023-05-08 01:00",3.83281345565749,"Approved","OW449"
"2023-05-08 02:00",3.82781600407747,"Approved","OW449"
"2023-05-08 03:00",3.82281855249745,"Approved","OW449"
"2023-05-08 04:00",3.81882110091743,"Approved","OW449"
"2023-05-08 05:00",3.81482364933741,"Approved","OW449"
"2023-05-08 06:00",3.80982619775739,"Approved","OW449"
"2023-05-08 07:00",3.80482874617737,"Approved","OW449"
"2023-05-08 08:00",3.79883129459735,"Approved","OW449"
"2023-05-08 09:00",3.79383384301733,"Approved","OW449"
"2023-05-08 10:00",3.78883639143731,"Approved","OW449"
"2023-05-08 11:00",3.78383893985729,"Approved","OW449"
"2023-05-08 12:00",3.77784148827727,"Approved","OW449"
"2023-05-08 13:00",3.77384403669725,"Approved","OW449"
"2023-05-08 14:00",3.76884658511723,"Approved","OW449"
"2023-05-08 15:00",3.76384913353721,"Approved","OW449"
"2023-05-08 16:00",3.75885168195719,"Approved","OW449"
"2023-05-08 17:00",3.75485423037717,"Approved","OW449"
"2023-05-08 18:00",3.74885677879715,"Approved","OW449"
"2023-05-08 19:00",3.74485932721713,"Approved","OW449"
"2023-05-08 20:00",3.73886187563711,"Approved","OW449"
"2023-05-08 21:00",3.73386442405708,"Approved","OW449"
"2023-05-08 22:00",3.73086697247706,"Approved","OW449"
"2023-05-08 23:00",3.72486952089704,"Approved","OW449"
"2023-05-09 00:00",3.71987206931702,"Approved","OW449"
"2023-05-09 01:00",3.713874617737,"Approved","OW449"
"2023-05-09 02:00",3.70887716615698,"Approved","OW449"
"2023-05-09 03:00",3.70387971457696,"Approved","OW449"
"2023-05-09 04:00",3.69788226299694,"Approved","OW449"
"2023-05-09 05:00",3.69288481141692,"Approved","OW449"
"2023-05-09 06:00",3.6878873598369,"Approved","OW449"
"2023-05-09 07:00",3.68188990825688,"Approved","OW449"
"2023-05-09 08:00",3.67689245667686,"Approved","OW449"
"2023-05-09 09:00",3.67089500509684,"Approved","OW449"
"2023-05-09 10:00",3.66689755351682,"Approved","OW449"
"2023-05-09 11:00",3.6619001019368,"Approved","OW449"
"2023-05-09 12:00",3.65690265035678,"Approved","OW449"
"2023-05-09 13:00",3.65190519877676,"Approved","OW449"
"2023-05-09 14:00",3.64590774719674,"Approved","OW449"
"2023-05-09 15:00",3.64091029561672,"Approved","OW449"
"2023-05-09 16:00",3.6339128440367,"Approved","OW449"
"2023-05-09 17:00",3.62891539245668,"Approved","OW449"
"2023-05-09 18:00",3.62291794087666,"Approved","OW449"
"2023-05-09 19:00",3.61792048929664,"Approved","OW449"
"2023-05-09 20:00",3.61192303771662,"Approved","OW449"
"2023-05-09 21:00",3.6059255861366,"Approved","OW449"
"2023-05-09 22:00",3.59992813455657,"Approved","OW449"
"2023-05-09 23:00",3.59393068297655,"Approved","OW449"
"2023-05-10 00:00",3.58893323139653,"Approved","OW449"
"2023-05-10 01:00",3.58293577981651,"Approved","OW449"
"2023-05-10 02:00",3.57793832823649,"Approved","OW449"
"2023-05-10 03:00",3.57394087665647,"Approved","OW449"
"2023-05-10 04:00",3.56794342507645,"Approved","OW449"
"2023-05-10 05:00",3.56394597349643,"Approved","OW449"
"2023-05-10 06:00",3.55894852191641,"Approved","OW449"
"2023-05-10 07:00",3.55395107033639,"Approved","OW449"
"2023-05-10 08:00",3.54895361875637,"Approved","OW449"
"2023-05-10 09:00",3.54295616717635,"Approved","OW449"
"2023-05-10 10:00",3.53795871559633,"Approved","OW449"
"2023-05-10 11:00",3.53296126401631,"Approved","OW449"
"2023-05-10 12:00",3.52796381243629,"Approved","OW449"
"2023-05-10 13:00",3.52296636085627,"Approved","OW449"
"2023-05-10 14:00",3.51596890927625,"Approved","OW449"
"2023-05-10 15:00",3.51197145769623,"Approved","OW449"
"2023-05-10 16:00",3.50597400611621,"Approved","OW449"
"2023-05-10 17:00",3.50097655453619,"Approved","OW449"
"2023-05-10 18:00",3.49597910295617,"Approved","OW449"
"2023-05-10 19:00",3.48998165137615,"Approved","OW449"
"2023-05-10 20:00",3.48598419979613,"Approved","OW449"
"2023-05-10 21:00",3.48098674821611,"Approved","OW449"
"2023-05-10 22:00",3.47598929663609,"Approved","OW449"
"2023-05-10 23:00",3.47099184505607,"Approved","OW449"
"2023-05-11 00:00",3.46599439347604,"Approved","OW449"
"2023-05-11 01:00",3.46199694189602,"Approved","OW449"
"2023-05-11 02:00",3.456999490316,"Approved","OW449"
"2023-05-11 03:00",3.45300203873598,"Approved","OW449"
"2023-05-11 04:00",3.45000458715596,"Approved","OW449"
"2023-05-11 05:00",3.44600713557594,"Approved","OW449"
"2023-05-11 06:00",3.44200968399592,"Approved","OW449"
"2023-05-11 07:00",3.4390122324159,"Approved","OW449"
"2023-05-11 08:00",3.43301478083588,"Approved","OW449"
"2023-05-11 09:00",3.42901732925586,"Approved","OW449"
"2023-05-11 10:00",3.42601987767584,"Approved","OW449"
"2023-05-11 11:00",3.42102242609582,"Approved","OW449"
"2023-05-11 12:00",3.4170249745158,"Approved","OW449"
"2023-05-11 13:00",3.41502752293578,"Approved","OW449"
"2023-05-11 14:00",3.41103007135576,"Approved","OW449"
"2023-05-11 15:00",3.40803261977574,"Approved","OW449"
"2023-05-11 16:00",3.40403516819572,"Approved","OW449"
"2023-05-11 17:00",3.4000377166157,"Approved","OW449"
"2023-05-11 18:00",3.39604026503568,"Approved","OW449"
"2023-05-11 19:00",3.39204281345566,"Approved","OW449"